Overview Statistics Trail Chart Weather Telemetry Raw packets
 

This is the latest recevied weather packets stored in our database for station/object SR4DIG-13. If no packets are shown the sender has not sent any weather packets the latest 10 day(s).

<< 29 30 31 32 33 34 35 >>
Time Temp. Humidity Pressure Rain* Wind** Luminosity Snow
1788431002 30° C 38% 1016.6 hPa 0 mm - - -
1788430701 28.89° C 38% 1016.7 hPa 0 mm - - -
1788430400 28.89° C 38% 1016.6 hPa 0 mm - - -
1788430100 30° C 35% 1016.7 hPa 0 mm - - -
1788429799 31.67° C 34% 1016.7 hPa 0 mm - - -
1788429498 31.67° C 35% 1016.8 hPa 0 mm - - -
1788429197 31.11° C 36% 1016.7 hPa 0 mm - - -
1788428896 30° C 37% 1016.9 hPa 0 mm - - -
1788428595 30° C 36% 1016.9 hPa 0 mm - - -
1788428294 30° C 37% 1016.9 hPa 0 mm - - -
1788427993 29.44° C 38% 1016.9 hPa 0 mm - - -
1788427692 29.44° C 38% 1017 hPa 0 mm - - -
1788427391 31.11° C 37% 1017 hPa 0 mm - - -
1788427090 30° C 39% 1017.1 hPa 0 mm - - -
1788426790 29.44° C 39% 1017.1 hPa 0 mm - - -
1788426489 29.44° C 39% 1017.2 hPa 0 mm - - -
1788426188 28.33° C 42% 1017 hPa 0 mm - - -
1788425887 26.67° C 43% 1017.1 hPa 0 mm - - -
1788425586 28.89° C 39% 1017 hPa 0 mm - - -
1788425017 28.89° C 38% 1017 hPa 0 mm - - -
1788424716 30° C 38% 1017.1 hPa 0 mm - - -
1788424415 30° C 38% 1017.1 hPa 0 mm - - -
1788424114 29.44° C 39% 1017.1 hPa 0 mm - - -
1788423813 30° C 37% 1017.1 hPa 0 mm - - -
1788423512 30° C 38% 1017.1 hPa 0 mm - - -

* Rain latest hour (hover to see other rain measurements)
** Current wind speed in m/s (hover to see current wind gust speed)